Weather in Vilshanka

Ukraine / Kirovohrad Region     48˚14′05″N   30˚52′21″E
temp.,
°C
wind,
m/s
gust,
m/s
humid.,
%
clouds,
%
prec.,
mm/h
press.,
hPa
HPBL,
m
2 december, wed
wed223:00+1˚ne3598100 0.1 1026318
02:00ne2498100 0.2 1026176
05:00ne3497100 0.1 1026249
08:00ne3595100 0.1 1026312
11:00+1˚ne229499 0.1 1027178
14:00+2˚ne1296100 0.3 1026120
17:00+1˚e2496100 0.1 1026231
20:00+1˚ese359099 0.1 1027341
3 december, thu
thu323:00−1˚e259399 0.0 1027174
02:00ene239390 0.0 1026143
05:00+1˚ene3491100 0.0 1026239
08:00+1˚e3591100 0.0 1025258
11:00+3˚e4685100 0.0 1025323
14:00+4˚e488793 0.0 1024367
17:00+4˚ese51094100 0.2 1023428
20:00+5˚ese5119399 0.2 1023439
4 december, fri
fri423:00+5˚se51093100 0.1 1023403
02:00+4˚se5109499 0.1 1023383
05:00+4˚se599498 0.0 1022417
08:00+4˚se599399 0.1 1023442
11:00+6˚se61083100 0.0 1023412
14:00+6˚se697971 0.0 1023449
17:00+4˚se7108976 0.0 1023487
20:00+4˚se7108888 0.0 1024609
5 december, sat
sat523:00+4˚se71184100 0.0 1024559
02:00+3˚se6988100 0.0 1025529
05:00+3˚ese6989100 0.0 1025516
08:00+3˚ese61088100 0.0 1026547
11:00+3˚ese6982100 0.0 1027598
14:00+4˚ese587196 0.0 1026550
17:00+2˚ese49775 0.0 1027443
20:00ese49858 0.0 1028480
6 december, sun
sun623:00+1˚ese587798 0.0 1028667
02:00ese697599 0.0 1028554
05:00−2˚ese496950 0.0 1029436
08:00−3˚ese4106825 0.0 1029495
11:00ese610583 0.0 1029589
14:00+2˚ese69571 0.0 1028723
17:00−1˚ese511660 0.0 1028436
20:00−2˚ese513620 0.0 1028478